[[[{"header":{"parameterUnit":"kt","parameterCategory":2,"dx":1,"dy":1,"la1":30.253999710083008,"la2":30.299108505249023,"lo1":-89.0895004272461,"lo2":-89.04439544677734,"nx":28,"ny":28,"refTime":"2022-09-28T21:00:00:Z","depth":0,"parameterNumber":1,"parameterNumberName":"U-component_of_WINDS"},"data":[-5.0066,-5.0159,-5.0152,-5.0253,-5.0264,-5.0331,-5.0353,-5.038,-5.0399,-5.0478,-5.0521,-5.0522,-5.0537,-5.0586,-5.0632,-5.0631,-5.0651,-5.0689,-5.0681,-5.0521,-5.0498,-5.0477,-5.0455,-5.0693,-5.0694,-5.0849,-5.085,-5.0852,-4.9947,-4.9959,-5.0011,-5.0056,-5.01,-5.0059,-5.0091,-5.0131,-5.0192,-5.0216,-5.0259,-5.0327,-5.038,-5.0382,-5.0431,-5.0472,-5.0456,-5.0486,-5.0483,-5.0486,-5.0314,-5.0291,-5.0498,-5.0498,-5.0498,-5.0498,-5.0498,-5.0498,-4.9728,-4.9784,-4.9807,-4.9864,-4.9884,-4.9914,-4.9966,-4.9967,-5.0017,-5.0068,-5.0049,-5.0117,-5.014,-5.0195,-5.0211,-5.0263,-5.0228,-5.0259,-5.0267,-5.0275,-5.0285,-5.0062,-5.0271,-5.027,-5.027,-5.0269,-5.0269,0,-4.9565,-4.9556,-4.9606,-4.9653,-4.9694,-4.973,-4.9761,-4.9792,-4.9768,-4.9811,-4.9871,-4.9904,-4.9969,-5.0024,-5.0068,-5.0078,-5.004,-5.0035,-5.0056,-5.0068,-5.0071,-5.0071,-4.9791,-5.003,-5.0028,-5.0026,-5.0025,-5.0024,-4.9345,-4.9411,-4.9432,-4.9468,-4.9484,-4.9542,-4.9574,-4.9548,-4.9584,-4.9618,-4.9668,-4.9723,-4.9766,-4.9863,-4.9862,-4.991,-4.9892,-4.9984,-4.9899,-4.9906,-4.9894,-4.9891,-4.9897,-5.0002,-5.0005,-5.0007,-5.0009,0,-4.9221,-4.9209,-4.9309,-4.9324,-4.9329,-4.94,-4.9411,-4.9465,-4.946,-4.9534,-4.9549,-4.9541,-4.96,-4.9584,-4.9649,-4.9639,-4.9752,-4.9733,-4.9744,-4.9739,-4.982,-4.9813,-5.0086,-5.012,-4.9872,-4.9874,-4.9876,0,-4.9028,-4.9116,-4.9093,-4.9153,-4.9248,-4.922,-4.9316,-4.9321,-4.9341,-4.9399,-4.9353,-4.9408,-4.9379,-4.9432,-4.9417,-4.9506,-4.9518,-4.9516,-4.9512,-4.9521,-4.9522,-4.954,-4.9529,-4.9498,-4.9496,-4.9495,-4.9494,0,-4.8837,-4.8927,-4.9023,-4.9042,-4.9066,-4.9111,-4.9123,-4.9145,-4.9178,-4.9217,-4.9238,-4.9285,-4.9312,-4.9348,-4.933,-4.9273,-4.9439,-4.9356,-4.9437,-4.9437,-4.9476,-4.9474,-4.9718,-4.9492,-4.9492,-4.9491,-4.9491,0,-4.868,-4.8722,-4.8862,-4.8881,-4.8906,-4.8968,-4.9014,-4.9064,-4.909,-4.9085,-4.9116,-4.9084,-4.9161,-4.9081,-4.9186,-4.9117,-4.9146,-4.915,-4.9156,-4.9163,-4.9074,-4.9215,-4.9448,-4.9472,-4.9167,-4.9165,-4.9162,0,-4.8464,-4.8602,-4.858,-4.8713,-4.8775,-4.872,-4.8788,-4.8814,-4.8813,-4.8864,-4.8863,-4.8922,-4.8858,-4.8875,-4.8929,-4.893,-4.9019,-4.8917,-4.8991,-4.8994,-4.8987,-4.9201,-4.924,-4.9398,-4.9128,-4.9131,-4.9134,0,-4.8295,-4.8325,-4.8351,-4.8371,-4.8401,-4.8453,-4.8532,-4.8585,-4.862,-4.8653,-4.8719,-4.8801,-4.8756,-4.8784,-4.8764,-4.8821,-4.8958,-4.8766,-4.8766,-4.8801,-4.9109,-4.9145,-4.9172,-4.8931,-4.8935,-4.8938,-4.9106,0,-4.8062,-4.813,-4.8198,-4.8245,-4.8283,-4.8366,-4.8351,-4.8391,-4.8368,-4.8366,-4.8461,-4.8478,-4.8532,-4.8558,-4.8536,-4.8672,-4.8647,-4.86,-4.8521,-4.8662,-4.8716,-4.8739,-4.844,-4.8438,-4.8436,-4.8434,0,0,-4.7858,-4.7956,-4.7929,-4.8006,-4.8036,-4.7978,-4.8068,-4.809,-4.8138,-4.8159,-4.8115,-4.8235,-4.8251,-4.8369,-4.8411,-4.8433,-4.8456,-4.8408,-4.8595,-4.8613,-4.8629,-4.8688,-4.8712,-4.8431,-4.843,-4.8429,-4.8429,0,-4.777,-4.7789,-4.7879,-4.7901,-4.7933,-4.7927,-4.7948,-4.797,-4.7972,-4.8066,-4.8018,-4.8073,-4.817,-4.8193,-4.8218,-4.8393,-4.8353,-4.841,-4.8509,-4.8575,-4.8595,-4.8614,-4.8676,-4.8699,-4.8424,-4.8424,-4.8424,0,-4.7602,-4.7619,-4.766,-4.7727,-4.7747,-4.7813,-4.7726,-4.7799,-4.7847,-4.7781,-4.7875,-4.7883,-4.7913,-4.8027,-4.8077,-4.8038,-4.8261,-4.8188,-4.82,-4.8206,-4.8269,-4.8294,-4.8316,-4.8024,-4.8023,-4.8022,0,0,-4.7528,-4.7592,-4.7601,-4.7707,-4.7723,-4.7715,-4.7748,-4.7729,-4.7758,-4.777,-4.7779,-4.7809,-4.7864,-4.7902,-4.7953,-4.808,-4.8084,-4.8139,-4.8158,-4.8174,-4.8188,-4.8255,-4.8279,-4.8017,-4.8017,-4.8016,0,0,-4.7493,-4.7509,-4.748,-4.7601,-4.7631,-4.7647,-4.7712,-4.7677,-4.7722,-4.7711,-4.7681,-4.7688,-4.7794,-4.7803,-4.7738,-4.7925,-4.7848,-4.7863,-4.7915,-4.7939,-4.7957,-4.7953,-4.7653,0,0,0,0,0,-4.7396,-4.7507,-4.7481,-4.7499,-4.7583,-4.7661,-4.7672,-4.765,-4.7595,-4.7647,-4.7649,-4.7605,-4.7762,-4.7703,-4.7721,-4.7795,-4.7952,-4.7964,-4.7974,-4.8071,-4.8096,-4.8117,0,0,0,0,0,0,-4.7403,-4.7426,-4.7478,-4.7499,-4.7518,-4.7657,-4.756,-4.7557,-4.7589,-4.758,-4.7606,-4.7606,-4.7588,-4.7692,-4.7709,-4.778,-4.7647,-4.7957,-4.7966,-4.7975,-4.808,-4.81,-4.8118,0,0,0,0,0,-4.7409,-4.7426,-4.7567,-4.7497,-4.7514,-4.7511,-4.7556,-4.7552,-4.7577,-4.7581,-4.758,-4.7558,-4.7591,-4.7603,-4.7702,-4.7773,-4.7635,-4.7642,-4.7963,-4.7971,-4.7977,-4.809,0,0,0,0,0,0,-4.7413,-4.7424,-4.757,-4.7574,-4.7455,-4.7503,-4.7509,-4.7549,-4.7576,-4.7576,-4.7531,-4.7523,-4.7594,-4.7603,-4.7613,-4.7771,-4.7626,-4.7632,-4.7636,-4.7969,-4.7975,-4.798,0,0,0,0,0,0,-4.7414,-4.7428,-4.7572,-4.7519,-4.7517,-4.7495,-4.7501,-4.7582,-4.7577,-4.7524,-4.7518,-4.7527,-4.7579,-4.7604,-4.7611,-4.7738,-4.7618,-4.7625,-4.7629,-4.7632,-4.7974,-4.7978,0,0,0,0,0,0,-4.7419,-4.7431,-4.7518,-4.7516,-4.7514,-4.7558,-4.7566,-4.7653,-4.7532,-4.7524,-4.7521,-4.7516,-4.7581,-4.7588,-4.761,-4.7734,-4.7737,-4.7619,-4.7623,-4.7626,-4.7628,0,0,0,0,0,0,0,-4.7424,-4.735,-4.7546,-4.7514,-4.7512,-4.7612,-4.7613,-4.7614,-4.7531,-4.7527,-4.7522,-4.7518,-4.7583,-4.759,-4.7597,-4.7731,0,0,-4.7618,-4.7621,0,0,0,0,0,0,0,0,-4.7345,-4.7349,-4.7546,-4.7547,-4.7548,-4.7612,-4.7613,-4.7614,-4.753,-4.7527,-4.7523,-4.752,-4.7585,-4.7591,-4.7596,0,0,0,0,0,0,0,0,0,0,0,0,0,0,0,-4.7546,-4.7547,0,-4.7612,-4.7613,-4.7614,-4.753,-4.7527,-4.7524,-4.7521,-4.7587,-4.7591,-4.7596,0,0,0,0,0,0,0,0,0,0,0,0,0,0,0,0,0,0,0,0,0,0,0,0,0,0,0,0,0,0,0,0,0,0,0,0,0,0,0,0,0,0,0,0,0,0,0,0,0,0,0,0,0,0,0,0,0,0,0,0,0,0,0,0,0,0,0,0,0]}],[{"header":{"parameterUnit":"kt","parameterCategory":2,"dx":1,"dy":1,"la1":30.253999710083008,"la2":30.299108505249023,"lo1":-89.0895004272461,"lo2":-89.04439544677734,"nx":28,"ny":28,"refTime":"2022-09-28T21:00:00:Z","depth":0,"parameterNumber":2,"parameterNumberName":"V-component_of_WINDS"},"data":[-18.9931,-19.0097,-19.0073,-19.025,-19.0257,-19.0372,-19.0405,-19.0444,-19.0467,-19.0599,-19.0669,-19.0658,-19.0667,-19.0742,-19.0814,-19.0806,-19.0838,-19.0918,-19.0894,-19.0567,-19.0519,-19.0474,-19.0433,-19.0926,-19.0926,-19.1237,-19.124,-19.1242,-18.9699,-18.971,-18.9796,-18.9862,-18.9935,-18.9845,-18.9888,-18.9953,-19.0057,-19.0087,-19.0154,-19.0265,-19.0349,-19.0329,-19.0404,-19.0477,-19.0436,-19.0499,-19.0492,-19.0495,-19.0144,-19.0102,-19.0532,-19.0531,-19.0531,-19.0531,-19.0531,-19.0531,-18.927,-18.937,-18.9395,-18.9487,-18.9512,-18.9556,-18.9645,-18.9628,-18.9709,-18.9785,-18.9735,-18.985,-18.987,-18.9943,-18.9959,-19.0046,-18.9969,-19.0028,-19.0042,-19.0058,-19.008,-18.9638,-19.0056,-19.0055,-19.0054,-19.0053,-19.0052,0,-18.8947,-18.892,-18.8998,-18.9072,-18.9136,-18.9188,-18.923,-18.9284,-18.9208,-18.9277,-18.9374,-18.9424,-18.9522,-18.9608,-18.9668,-18.9671,-18.9578,-18.9565,-18.9605,-18.9631,-18.965,-18.9642,-18.9072,-18.9551,-18.9547,-18.9544,-18.9541,-18.954,-18.8512,-18.8631,-18.8641,-18.87,-18.8716,-18.8812,-18.8862,-18.8785,-18.8842,-18.8879,-18.8969,-18.9054,-18.9117,-18.9273,-18.9245,-18.9316,-18.927,-18.9458,-18.928,-18.9303,-18.9273,-18.9267,-18.9278,-18.9493,-18.9499,-18.9504,-18.9508,0,-18.8269,-18.8223,-18.8397,-18.8393,-18.8395,-18.8523,-18.8517,-18.8611,-18.8581,-18.8705,-18.873,-18.8681,-18.8775,-18.8716,-18.8809,-18.8774,-18.8981,-18.8935,-18.8975,-18.8962,-18.9123,-18.9109,-18.9656,-18.9724,-18.9213,-18.9218,-18.9223,0,-18.7879,-18.8036,-18.7957,-18.806,-18.8233,-18.815,-18.8322,-18.8312,-18.8327,-18.8424,-18.8309,-18.8402,-18.831,-18.8395,-18.8344,-18.8501,-18.8518,-18.8501,-18.8485,-18.8511,-18.8513,-18.8536,-18.8512,-18.8445,-18.8442,-18.8439,-18.8437,0,-18.7503,-18.7643,-18.781,-18.7834,-18.7842,-18.7922,-18.7928,-18.7942,-18.799,-18.8043,-18.8073,-18.8139,-18.8175,-18.8228,-18.8162,-18.8044,-18.8353,-18.8176,-18.8334,-18.8337,-18.8404,-18.84,-18.8902,-18.8434,-18.8433,-18.8432,-18.8431,0,-18.7178,-18.7236,-18.7485,-18.7489,-18.7528,-18.7637,-18.7697,-18.7776,-18.7799,-18.7774,-18.7813,-18.7727,-18.786,-18.769,-18.787,-18.7735,-18.7777,-18.7772,-18.7782,-18.7788,-18.7599,-18.7889,-18.8374,-18.8422,-18.7798,-18.7792,-18.7788,0,-18.6762,-18.6999,-18.6929,-18.7165,-18.7266,-18.713,-18.7248,-18.7271,-18.7248,-18.7327,-18.7298,-18.7389,-18.7249,-18.7268,-18.7366,-18.7339,-18.7515,-18.7314,-18.7427,-18.7432,-18.7426,-18.7872,-18.7958,-18.8275,-18.7719,-18.7726,-18.7731,0,-18.6432,-18.6439,-18.6486,-18.6509,-18.6526,-18.6607,-18.6744,-18.6815,-18.6872,-18.6909,-18.7019,-18.7144,-18.7043,-18.7075,-18.701,-18.7115,-18.7393,-18.6991,-18.699,-18.7066,-18.7679,-18.7761,-18.7815,-18.7326,-18.7335,-18.7341,-18.7677,0,-18.5953,-18.6063,-18.6188,-18.624,-18.6293,-18.6436,-18.6371,-18.6435,-18.6369,-18.6338,-18.6499,-18.6497,-18.6566,-18.6609,-18.6543,-18.6802,-18.6748,-18.6638,-18.6465,-18.6759,-18.6868,-18.6912,-18.6309,-18.6304,-18.6299,-18.6295,0,0,-18.5566,-18.5721,-18.5636,-18.5765,-18.5804,-18.5658,-18.5817,-18.5837,-18.5881,-18.5911,-18.5815,-18.5989,-18.5991,-18.6192,-18.6278,-18.6306,-18.6345,-18.6244,-18.662,-18.6656,-18.669,-18.6808,-18.6855,-18.6287,-18.6285,-18.6284,-18.6282,0,-18.5377,-18.5386,-18.5544,-18.5563,-18.5586,-18.5546,-18.5584,-18.5579,-18.5566,-18.5722,-18.5595,-18.5683,-18.5822,-18.5841,-18.5869,-18.6219,-18.6116,-18.6245,-18.6457,-18.6576,-18.6618,-18.6656,-18.6781,-18.6827,-18.6271,-18.6272,-18.6272,0,-18.5039,-18.5038,-18.5107,-18.5189,-18.5201,-18.5306,-18.511,-18.5228,-18.5304,-18.5131,-18.5287,-18.5276,-18.5294,-18.5492,-18.5578,-18.5492,-18.5913,-18.5766,-18.5793,-18.5801,-18.5912,-18.5964,-18.601,-18.5406,-18.5403,-18.5401,0,0,-18.4884,-18.4985,-18.4955,-18.5142,-18.516,-18.5101,-18.5148,-18.5085,-18.5105,-18.5114,-18.5097,-18.512,-18.5199,-18.5254,-18.5324,-18.5552,-18.5547,-18.5663,-18.5703,-18.5737,-18.5763,-18.5883,-18.5934,-18.5391,-18.5391,-18.539,0,0,-18.4808,-18.4782,-18.471,-18.492,-18.4946,-18.4926,-18.5042,-18.4953,-18.501,-18.4985,-18.488,-18.4881,-18.5065,-18.5058,-18.4929,-18.5261,-18.5092,-18.5121,-18.5259,-18.5309,-18.5349,-18.5346,-18.4724,0,0,0,0,0,-18.4579,-18.4785,-18.4721,-18.4746,-18.4846,-18.4963,-18.4975,-18.4894,-18.4777,-18.4872,-18.4843,-18.4729,-18.4967,-18.4851,-18.4876,-18.5019,-18.5258,-18.5282,-18.5304,-18.5534,-18.5588,-18.5633,0,0,0,0,0,0,-18.4588,-18.4619,-18.4715,-18.4706,-18.4727,-18.4955,-18.4738,-18.4722,-18.4765,-18.4741,-18.4738,-18.4729,-18.466,-18.4832,-18.4856,-18.4994,-18.4716,-18.5268,-18.5287,-18.5305,-18.5553,-18.5597,-18.5634,0,0,0,0,0,-18.4595,-18.462,-18.4801,-18.4702,-18.472,-18.4663,-18.473,-18.4714,-18.4746,-18.47,-18.4687,-18.4681,-18.4666,-18.4681,-18.4846,-18.4985,-18.4699,-18.4708,-18.528,-18.5296,-18.531,-18.5574,0,0,0,0,0,0,-18.46,-18.4606,-18.4803,-18.4806,-18.4617,-18.4649,-18.4651,-18.4709,-18.47,-18.4689,-18.4637,-18.4618,-18.4673,-18.4683,-18.4695,-18.4987,-18.4685,-18.4694,-18.47,-18.5292,-18.5305,-18.5316,0,0,0,0,0,0,-18.4592,-18.4609,-18.4804,-18.4702,-18.4692,-18.4636,-18.4638,-18.4765,-18.4701,-18.4636,-18.462,-18.4629,-18.4654,-18.4686,-18.4694,-18.4896,-18.4674,-18.4683,-18.4689,-18.4693,-18.5303,-18.5312,0,0,0,0,0,0,-18.4597,-18.4612,-18.4701,-18.4694,-18.4684,-18.4707,-18.4746,-18.4851,-18.4618,-18.4639,-18.4594,-18.4583,-18.4661,-18.4667,-18.4695,-18.4894,-18.4895,-18.4674,-18.468,-18.4685,-18.4687,0,0,0,0,0,0,0,-18.4602,-18.4522,-18.4788,-18.4686,-18.4678,-18.483,-18.483,-18.4831,-18.4615,-18.4606,-18.4596,-18.4588,-18.4623,-18.4633,-18.4643,-18.4892,0,0,-18.4673,-18.4678,0,0,0,0,0,0,0,0,-18.4514,-18.452,-18.4788,-18.4789,-18.479,-18.483,-18.483,-18.4831,-18.4614,-18.4606,-18.4598,-18.4591,-18.4625,-18.4633,-18.4641,0,0,0,0,0,0,0,0,0,0,0,0,0,0,0,-18.4789,-18.4789,0,-18.483,-18.483,-18.4831,-18.4612,-18.4606,-18.46,-18.4594,-18.4628,-18.4634,-18.4641,0,0,0,0,0,0,0,0,0,0,0,0,0,0,0,0,0,0,0,0,0,0,0,0,0,0,0,0,0,0,0,0,0,0,0,0,0,0,0,0,0,0,0,0,0,0,0,0,0,0,0,0,0,0,0,0,0,0,0,0,0,0,0,0,0,0,0,0,0]}]]]